Погода в Новгороде

Погода в Новгороде : погода сейчас, прогноз погоды и архив. Всё, что Вы хотите узнать о погоде в Новгороде!

Хотите узнать прогноз погоды в Новгороде? Тогда Вам сюда: Погода в Новгороде

Поиск расширенной информации на нашем сайте:

Другие новости

Новости СМИ2

Главная страница сайта

Новости сайта

03.07.2017

Напоминаем, что на нашем специализированном сайте Метеоцентр.Азия вы можете получить высокодетализированные автоматические прогнозы погоды по пунктам России, СНГ и мира в авиационном формате (включающие направление и скорость ветра, видимость, явления погоды, количество и форму облачности, нижнюю и верхнюю границу облачности).

Рекомендуем: Купить генератор бензиновый цена.

Погода в Новгороде - сегодня

Время (UTC), дата Ветер
(°,м/с) 
Видим.   Явления Облачность Т
(°С)
Тd
(°С)
f(%) Тe
(°С)
Pmin
(гПа)
dP
(гПа)
Po
(мм)
O2
(г/м3)
Тmin Tmax R s Состояние
почвы
03 17.10.17 290 (З) 10 км    ясно 
+7.1 +4.7 85 +6  1011.7  2.3  756  296  +7.1         
06 17.10.17 280 (З) 10 км    4/0 средняя 
[Ac trans]
+6.1 +4.2 88 +5  1013.2  1.5  758  298  +5.8         
09 17.10.17 280 (З) 5{10}  10 км    9/0 средняя, верхняя 
[Ac trans|Cs]
+8.2 +4.2 76 +7  1014.3  1.1  758  296           
12 17.10.17 250 (З) 10 км    10/4 1000 м средняя, верхняя 
[Sc|Ac trans|Cs]
+9.4 +3.7 68 +9  1014.1  -0.3  758  295           
15 17.10.17 240 (ЮЗ) 10 км  слаб. ливневой дождь  10/10 600 м кучево-дожд. 
[Cb cap]
+8 +5.6 85 +7  1012.4  -1.7  757  295      0.0     
18 17.10.17 180 (Ю) 4000 м  слаб. ливневой дождь{гроза}  10/10 300 м кучево-дожд. 
[Cb cap]
+7.2 +6.4 95 +6  1008.1  -4.2  754  295    +9.4     
21 17.10.17 210 (ЮЗ) 2000 м  дымка{ливн. осадки}  10/10 300 м кучево-дожд. 
[Cb cap]
+8.8 +8.1 95 +8  1004  -4  751  292           
00 18.10.17 240 (ЮЗ) 4000 м  дымка{ливн. осадки}  10/10 300 м кучево-дожд. 
[Cb cap]
+11.4 +10.4 94 +13  1002.2  -1.8  749  288           
03 18.10.17 250 (З) 4000 м  дымка{ливн. осадки}  10/10 300 м кучево-дожд. 
[Cb cap]
+11.3 +9.3 87 +11  1001.1  -1.1  749  288  +6.7       
06 18.10.17 250 (З) 10 км  {ливн. осадки}  10/9 300 м средняя 
[St|Ac und]
+11.4 +8.6 83 +10  1000.1  -0.9  748  288  +7.2    0.8     
09 18.10.17 250 (З) 7-12{12}  10 км  слаб. ливневой дождь  10/10 600 м кучево-дожд. 
[Cb cap]
+11.4 +8.7 83 +10  999.3  -0.9  747  287           
12 18.10.17 250 (З) 4{14}  10 км  в посл. час ливневой дождь  10/10 300 м 
[St]
+11.6 +9.5 87 +12  999.6  0.3  747  287           
15 18.10.17 310 (СЗ) 6-10{15}  10 км  {ливн. осадки}  6/4 600 м кучево-дожд., верхняя 
[Cb cap|Ci fib]
+7 +3.2 77 +5  1004.3  4.7  751  295         
18 18.10.17 290 (З) 4{11}  10 км  {ливн. осадки}  ясно 
+5.3 +3.1 86 +4  1007.3  2.9  753  297    +12.2     
21 18.10.17 270 (З) 10 км    ясно 
+4 +2.6 91 +3  1008.5  1.2  754  299           
00 19.10.17 270 (З) 10 км    ясно 
+4.1 +2.8 91 +3  1009.5  1.1  755  299           
03 19.10.17 280 (З) 10 км    8/6 600 м средняя, верхняя 
[Sc|Ac trans|Ci]
+4.6 +3.4 92 +4  1011  1.5  756  299  +3.3         
06 19.10.17 280 (З) 4000 м  дымка  9/8 600 м кучево-дожд., средняя 
[Cb cap|Ac lent]
+5.1 +4 93 +4  1013  757  299  +3.3         
09 19.10.17 310 (СЗ) 20000 м    9/8 600 м кучево-дожд., средняя 
[Cb cap|Ac lent]
+7.6 +3.4 75 +6  1014.7  1.7  759  297           
12 19.10.17 310 (СЗ) 10 км  в посл. час ливневой дождь  8/4 300 м кучево-дожд., средняя 
[Cb cap|Ac lent]
+7.9 +3 71 +7  1016  1.2  760  297           
15 19.10.17 300 (СЗ) 3{11}  10 км  в посл. час ливневой дождь  8/6 300 м кучево-дожд., средняя 
[Cb cap|Ac lent]
+5.4 +3.1 85 +4  1017.3  1.3  761  300      0.4     
18 19.10.17 310 (СЗ) 4000 м  дымка{ливн. осадки}  9/5 600 м кучево-дожд., средняя 
[Cb cap|Ac trans]
+3.4 +2.3 92 +3  1018.6  1.3  762  303    +8.5  0.4     
21 19.10.17 230 (ЮЗ) 4000 м  местами туман поземный  ясно 
+0.7 +0.1 96 +1  1019.7  1.1  762  306           
00 20.10.17 290 (З) 4000 м  дымка  9/9 300 м 
[Sc]
+0.7 +0.4 98 +1  1020.2  0.5  763  307           
03 20.10.17 310 (СЗ) 4000 м  дымка{ливн. осадки}  9/9 300 м кучево-дожд. 
[Cb cap]
+2.8 +2.4 97 +4  1020.8  0.6  763  304  -0.8    0.5     
Время (UTC), дата Ветер
(°,м/с) 
Видим.   Явления Облачность Т
(°С)
Тd
(°С)
f(%) Тe
(°С)
Pmin
(гПа)
dP
(гПа)
Po
(мм)
O2
(г/м3)
Тmin Tmax R s Состояние
почвы

Для получения пояснительной информации подведите курсор к названию столбца.

ПОГОДА в Новгороде - архив

Всё, что Вы хотите узнать о погоде в Новгороде - удобно и подробно!

Выберите нужную дату (начиная с 1 января 2015* года) и нажмите кнопку "Найти".
Будут отображены архивные сводки погоды по пункту Новгород, начиная с указанной даты.


Отображать данные в формате CSV (для использования в таблицах Excel)


Внимание! Наш архив погоды предназначен исключительно для личного некоммерческого использования в познавательных целях. Если Вам необходимы официальные справки о состоянии погоды (для производственных, юридических, коммерческих и т.п. целей), обращайтесь в органы Росгидромета.

*Примечание: данная дата относится к архиву по метеостанциям СССР (Россия, СНГ, Балтия).
Архив по метеостанциям Зарубежной Европы и Азии (кроме Китая) хранится 10 дней, по другим регионам земного шара (Китай, Африка, Америка, Австралия, Океания) - 1 день.

Новгород - район местоположения метеостанции


Название, широта, долгота, высота метеостанции:
Новгород 58.6°ш. 31.2°д. 24 м над ур. моря [Российская Федерация]

Дополнительная информация

В oтличие oт бoльшинства пoгoдных сайтoв мы публикуем пoдрoбную метеoинфoрмацию в детальнoм прoфессиoнальнoм фoрмате.

Характеристики температуры и влажнoсти вoздуха измеряются на высoте 2 м в тени вдали oт зданий и деревьев.
Скoрoсть ветра измеряется на высoте 10 м (на урoвне рoста челoвека скoрoсть ветра ниже в 1.5-2 раза). Если метеoстанция нахoдится в гoрoде или в лесу, тo скoрoсть ветра занижена на 2-4 м/с пo сравнению с oткрытым местoм. Скoрoсть ветра над акватoриями крупных рек и oзёр, а также на вершинах хoлмoв на 2-5 м/с выше, чем в oбычных услoвиях.
Атмoсфернoе давление в разных тoчках местнoсти мoжет значительнo oтличаться oт давления на метеoстанции, в зависимoсти oт услoвий рельефа (при пoдъёме на 10 м давление пoнижается примернo на 1 мм рт.ст.).